KA3ZXO Weather Reports


time (UTC)temp
C
wind
direction
speed
KPH
gust
KPH
rain 1hr
cm
rain 24hr
cm
rain mn
cm
humidity
%
barometer
mb
20260504173658 22 253 3.2 3.2 0.00 0.00 0.00 34 1012.7
20260504172658 22 227 3.2 4.8 0.00 0.00 0.00 33 1013.1
20260504171657 22 291 3.2 4.8 0.00 0.00 0.00 34 1013.3
20260504170655 21 291 0.0 1.6 0.00 0.00 0.00 35 1013.3
20260504150630 18 332 1.6 1.6 0.00 0.00 0.00 40 1014.1
20260504140621 16 136 0.0 0.0 0.00 0.00 0.00 51 1014.5
20260504130608 14 285 1.6 3.2 0.00 0.00 0.00 54 1014.7
20260504110537 11 180 0.0 0.0 0.00 0.00 0.00 67 1015.7
20260504100522 11 182 0.0 0.0 0.00 0.00 0.00 69 1015.5
20260504081454 11 201 0.0 0.0 0.00 0.00 0.00 67 1015.8
20260504080452 11 187 0.0 0.0 0.00 0.00 0.00 67 1015.9
20260504050421 10 175 0.0 0.0 0.00 0.00 0.00 68 1016.1
20260504045419 10 175 0.0 0.0 0.00 0.00 0.00 67 1016.0
20260504044419 10 180 0.0 0.0 0.00 0.00 0.00 68 1016.3
20260504043419 9 188 0.0 0.0 0.00 0.00 0.00 70 1016.3
20260504042419 8 188 0.0 0.0 0.00 0.00 0.00 74 1016.3
20260504041418 8 215 0.0 0.0 0.00 0.00 0.00 76 1016.2
20260504040412 7 222 0.0 0.0 0.00 0.00 0.00 77 1016.2
20260504035411 7 222 0.0 0.0 0.00 0.00 0.00 78 1015.9
20260504034411 7 222 0.0 0.0 0.00 0.00 0.00 78 1016.1
20260504033406 7 222 0.0 0.0 0.00 0.00 0.00 78 1015.9
20260504032405 7 222 0.0 0.0 0.00 0.00 0.00 77 1015.9
20260504031405 7 222 0.0 0.0 0.00 0.00 0.00 77 1015.7
20260504030404 7 222 0.0 0.0 0.00 0.00 0.00 77 1015.8
20260504025403 7 222 0.0 0.0 0.00 0.00 0.00 77 1015.9
20260504024402 7 222 0.0 0.0 0.00 0.00 0.00 77 1015.6
20260504023402 7 222 0.0 0.0 0.00 0.00 0.00 76 1015.8
20260504022400 7 222 0.0 0.0 0.00 0.00 0.00 74 1015.7
20260504021359 7 223 0.0 0.0 0.00 0.00 0.00 74 1015.7
20260504020359 7 223 0.0 0.0 0.00 0.00 0.00 74 1015.8
20260504015357 7 223 0.0 0.0 0.00 0.00 0.00 73 1015.7
20260504014355 8 223 0.0 0.0 0.00 0.00 0.00 72 1015.6
20260504013351 8 223 0.0 0.0 0.00 0.00 0.00 71 1015.6
20260504012351 8 223 0.0 0.0 0.00 0.00 0.00 70 1015.5
20260504011350 8 225 0.0 0.0 0.00 0.00 0.00 68 1015.1
20260504010348 9 225 0.0 0.0 0.00 0.00 0.00 66 1015.5
20260504005347 9 225 0.0 0.0 0.00 0.00 0.00 64 1015.2
20260504004343 10 226 0.0 0.0 0.00 0.00 0.00 62 1015.2
20260504003342 10 226 0.0 0.0 0.00 0.00 0.00 60 1015.1
20260504002340 11 226 0.0 0.0 0.00 0.00 0.00 55 1015.1
20260504001340 11 226 0.0 0.0 0.00 0.00 0.00 52 1015.0
20260504000340 12 226 0.0 0.0 0.00 0.00 0.00 51 1015.0
20260503235335 13 227 0.0 0.0 0.00 0.00 0.00 47 1014.8
20260503234330 14 227 0.0 0.0 0.00 0.00 0.00 43 1014.7
20260503233329 15 227 0.0 0.0 0.00 0.00 0.00 42 1014.7
20260503232329 15 277 0.0 1.6 0.00 0.00 0.00 36 1014.5
20260503231330 15 258 0.0 0.0 0.00 0.00 0.00 35 1014.5
20260503230328 15 241 1.6 1.6 0.00 0.00 0.00 35 1014.6
20260503225328 16 278 3.2 4.8 0.00 0.00 0.00 33 1014.5
20260503224327 17 207 0.0 0.0 0.00 0.00 0.00 33 1014.6
20260503223323 17 279 0.0 1.6 0.00 0.00 0.00 31 1014.6
20260503222323 17 228 0.0 1.6 0.00 0.00 0.00 31 1014.7
20260503221319 17 256 1.6 1.6 0.00 0.00 0.00 31 1014.6
20260503220317 18 260 1.6 1.6 0.00 0.00 0.00 31 1014.7
20260503215317 17 279 1.6 1.6 0.00 0.00 0.00 32 1014.8
20260503214312 17 253 1.6 1.6 0.00 0.00 0.00 31 1014.8
20260503213307 17 275 1.6 1.6 0.00 0.00 0.00 31 1014.5
20260503212301 17 288 3.2 3.2 0.00 0.00 0.00 30 1014.6
20260503211301 17 345 3.2 4.8 0.00 0.00 0.00 30 1014.4
20260503210259 18 202 1.6 1.6 0.00 0.00 0.00 30 1014.5
20260503205256 17 288 6.4 9.7 0.00 0.00 0.00 31 1014.4
20260503204257 17 231 3.2 3.2 0.00 0.00 0.00 31 1014.4
20260503203251 17 320 6.4 6.4 0.00 0.00 0.00 30 1014.6
20260503202246 17 248 1.6 1.6 0.00 0.00 0.00 32 1014.8
20260503201247 17 254 3.2 4.8 0.00 0.00 0.00 31 1015.0
20260503200245 17 229 1.6 1.6 0.00 0.00 0.00 32 1015.1
20260503195245 17 235 3.2 4.8 0.00 0.00 0.00 30 1015.2
20260503194244 16 273 1.6 3.2 0.00 0.00 0.00 34 1015.3
20260503193243 16 287 1.6 1.6 0.00 0.00 0.00 33 1015.4
20260503192239 16 246 1.6 3.2 0.00 0.00 0.00 32 1015.6
20260503191234 16 332 3.2 3.2 0.00 0.00 0.00 31 1015.8
20260503190233 16 236 0.0 1.6 0.00 0.00 0.00 34 1015.7
20260503185232 16 262 3.2 4.8 0.00 0.00 0.00 33 1015.8
20260503184229 16 279 3.2 4.8 0.00 0.00 0.00 32 1015.9
20260503183229 15 330 11.3 20.9 0.00 0.00 0.00 32 1016.0
20260503182225 15 342 3.2 4.8 0.00 0.00 0.00 34 1015.9
20260503181224 15 207 3.2 3.2 0.00 0.00 0.00 34 1016.1
20260503180219 15 332 3.2 3.2 0.00 0.00 0.00 35 1016.2
20260503175219 15 290 3.2 3.2 0.00 0.00 0.00 37 1016.1
20260503174218 15 354 1.6 1.6 0.00 0.00 0.00 35 1016.0